Location: Maiden
(35.5760°N, 81.2120°W)
Time: 22:01:01
(UTC-04:00)

A-11 Canister half - Pass Details

Date: 10 August 2020
Orbit: 1514 x 1686 km, 47.2° (Epoch: 26 September)

Event Time Altitude Azimuth Distance (km) Brightness Sun altitude
Rises 20:44:08 0° 270° (W) 4,752 13.0 -5.6°
Reaches altitude 10° 20:47:23 10° 276° (W) 3,792 12.5 -6.2°
Maximum altitude 20:56:35 46° 348° (NNW) 2,090 10.1 -7.9°
Drops below altitude 10° 21:06:08 10° 60° (ENE) 3,919 10.8 -9.6°
Sets 21:09:34 0° 66° (ENE) 4,922 11.3 -10.2°
